Find Starlink 34266

NORAD ID: 65093 Int'l Des: 2025-167 Owner: SPXS Country: US Constellation: starlink operational
LEOCIRCULAR

現在のビュー

3D地球を読み込み中...

About Starlink 34266

Starlink 34266 (NORAD 65093) is a starlink constellation satellite (v2 mini) launched Aug 4, 2025 by SPXS of US. It operates in LEO, CIRCULAR orbit with a mass of 575.00 kg.

Starlink 34266について

説明を読み込み中...

次回通過

Passes for default location (London). Set your location on the main map for personalized predictions.

高度履歴

Loading altitude history...

軌道要素

1 65093U 25167R 26191.30113638 .00021793 00000-0 65423-3 0 9993
2 65093 53.1600 171.3520 0002054 95.7403 264.3834 15.34401160 52336
Epoch: Jul 10, 2026 • Age: 10 hours

現在のステータス

高度 466.4 km
遠地点 / 近地点 N/A
速度 7.64 km/s
衛星直下点 47.02°N, 111.17°E
打ち上げ日 Aug 4, 2025
運用期間 0.9 years
タイプ internet

技術仕様

分類 Payload
質量 575.00 kg
乾燥質量 530.00 kg
総質量 575.00 kg
長さ 0.30 m
直径 4.10 m
スパン 29.00 m
形状 Box + pan
製造者 SPXS
バスタイプ Starlink V2MO
フェーズステータス In Orbit
所有者/国 SPXS/US

Most Searched